Location: Running Springs
(34.2078°N, 117.1092°W)
Time: 05:13:28
(UTC+00:00)

Cosmos 1939 Rocket - Pass Details

Date: 13 April 2024
Orbit: 497 x 536 km, 97.5° (Epoch: 20 May)

Event Time Altitude Azimuth Distance (km) Brightness Sun altitude
Rises 12:19:34 0° 10° (N) 2,590 6.7 -12.6°
Reaches altitude 10° 12:21:39 10° 10° (N) 1,704 5.7 -12.2°
Maximum altitude 12:25:19 83° 284° (WNW) 508 2.5 -11.5°
Drops below altitude 10° 12:28:59 10° 195° (SSW) 1,706 5.0 -10.8°
Enters shadow 12:31:19 -1° 194° (SSW) 2,702 6.0 -10.3°
